1510941600.17,11378,8.31,73528.3,-3.49,-4.25,-4.29,0,*5E
1510941601.37,11379,8.31,73528.0,-3.49,-4.25,-4.25,0,*53
1510941602.59,11380,8.31,73528.0,-3.51,-4.17,-4.29,0,*51
1510941603.8,11381,8.31,73530.0,-3.49,-4.25,-4.25,0,*54
1510941605.01,11382,8.31,73524.5,-3.49,-4.21,-4.21,0,*57
1510941606.21,11383,8.31,73526.5,-3.49,-4.29,-4.29,0,*56
1510941607.41,11384,8.31,73522.8,-3.49,-4.17,-4.25,0,*50
1510941608.61,11385,8.31,73526.3,-3.49,-4.17,-4.25,0,*51
1510941609.81,11386,8.31,73524.3,-3.49,-4.17,-4.29,0,*5E
1510941611.03,11387,8.31,73530.3,-3.47,-4.13,-4.21,0,*5D
1510941612.23,11388,8.31,73524.0,-3.49,-4.17,-4.25,0,*5C
1510941613.43,11389,8.31,73524.3,-3.49,-4.17,-4.29,0,*51
1510941614.65,11390,8.31,73526.8,-3.51,-4.17,-4.29,0,*50
1510941615.85,11391,8.31,73526.8,-3.49,-4.17,-4.25,0,*54
1510941617.05,11392,8.31,73526.0,-3.49,-4.17,-4.25,0,*57
1510941618.25,11393,8.31,73526.8,-3.49,-4.17,-4.29,0,*5A
1510941619.47,11394,8.31,73528.0,-3.47,-4.13,-4.21,0,*5F
1510941620.67,11395,8.31,73524.8,-3.49,-4.17,-4.29,0,*5C
1510941621.87,11396,8.31,73526.8,-3.49,-4.17,-4.29,0,*5F
1510941623.08,11397,8.31,73528.3,-3.49,-4.25,-4.25,0,*53
1510941624.28,11398,8.31,73526.3,-3.49,-4.17,-4.25,0,*5D
1510941625.47,11399,8.31,73524.3,-3.49,-4.17,-4.25,0,*5C
1510941626.67,11400,8.31,73526.5,-3.49,-4.17,-4.29,0,*57
1510941627.87,11401,8.31,73528.5,-3.49,-4.17,-4.29,0,*56
1510941629.08,11402,8.31,73526.5,-3.49,-4.25,-4.29,0,*54
1510941630.28,11403,8.31,73528.3,-3.49,-4.25,-4.29,0,*55
1510941631.48,11404,8.31,73524.8,-3.49,-4.25,-4.29,0,*52
1510941632.71,11405,8.31,73526.3,-3.47,-4.25,-4.25,0,*51
1510941633.91,11406,8.31,73528.0,-3.49,-4.25,-4.29,0,*50
1510941635.11,11407,8.31,73524.8,-3.49,-4.25,-4.29,0,*51
1510941636.34,11408,8.31,73524.8,-3.47,-4.21,-4.25,0,*58
1510941637.54,11409,8.31,73524.3,-3.49,-4.25,-4.29,0,*5F
1510941638.75,11410,8.31,73524.8,-3.49,-4.25,-4.29,0,*57
1510941639.97,11411,8.31,73526.3,-3.47,-4.21,-4.25,0,*50
1510941641.17,11412,8.31,73524.0,-3.49,-4.17,-4.29,0,*54
1510941642.39,11413,8.31,73526.5,-3.47,-4.13,-4.25,0,*53
1510941643.59,11414,8.31,73526.8,-3.49,-4.25,-4.29,0,*53
1510941644.8,11415,8.31,73528.0,-3.49,-4.25,-4.29,0,*52
1510941646.02,11416,8.31,73526.8,-3.47,-4.21,-4.25,0,*57
1510941647.22,11417,8.31,73526.3,-3.49,-4.17,-4.29,0,*51
1510941648.42,11418,8.31,73530.0,-3.49,-4.29,-4.25,0,*5F
1510941649.65,11419,8.31,73526.3,-3.47,-4.25,-4.21,0,*58
1510941650.87,11420,8.31,73526.3,-3.47,-4.21,-4.25,0,*52
1510941652.08,11421,8.31,73526.8,-3.49,-4.25,-4.29,0,*55
1510941653.28,11422,8.31,73524.5,-3.49,-4.25,-4.25,0,*5A
1510941654.48,11423,8.31,73530.0,-3.49,-4.29,-4.29,0,*5B
1510941655.69,11424,8.31,73526.0,-3.49,-4.25,-4.29,0,*50
1510941656.89,11425,8.31,73524.0,-3.49,-4.25,-4.29,0,*51
1510941658.09,11426,8.31,73522.8,-3.49,-4.17,-4.29,0,*53
1510941659.31,11427,8.31,73524.0,-3.47,-4.13,-4.29,0,*58
1510941660.53,11428,8.31,73526.3,-3.47,-4.21,-4.29,0,*56
1510941661.73,11429,8.31,73526.3,-3.49,-4.25,-4.33,0,*56
1510941662.96,11430,8.31,73524.5,-3.47,-4.25,-4.25,0,*57
1510941664.18,11431,8.31,73530.5,-3.47,-4.21,-4.25,0,*52
1510941665.38,11432,8.31,73528.5,-3.49,-4.29,-4.29,0,*5B
1510941666.58,11433,8.31,73530.8,-3.49,-4.29,-4.33,0,*51
1510941667.81,11434,8.31,73530.0,-3.47,-4.21,-4.37,0,*54
1510941669.0,11435,8.31,73526.3,-3.49,-4.29,-4.33,0,*57
1510941670.22,11436,8.38,73530.0,-3.47,-4.13,-4.25,0,*54
1510941671.43,11437,8.31,73530.8,-3.49,-4.25,-4.29,0,*52
1510941672.62,11438,8.31,73530.3,-3.49,-4.29,-4.33,0,*5A
1510941673.82,11439,8.31,73528.8,-3.49,-4.29,-4.33,0,*5B
1510941675.02,11440,8.31,73528.0,-3.49,-4.25,-4.33,0,*59
1510941676.24,11441,8.38,73528.5,-3.47,-4.25,-4.29,0,*5D
1510941677.44,11442,8.38,73532.5,-3.49,-4.29,-4.33,0,*57
1510941678.64,11443,8.31,73530.5,-3.49,-4.29,-4.41,0,*53
1510941679.84,11444,8.31,73528.3,-3.49,-4.33,-4.33,0,*5A
1510941681.04,11445,8.31,73524.8,-3.49,-4.33,-4.41,0,*5E
1510941682.24,11446,8.31,73524.5,-3.49,-4.29,-4.37,0,*57
1510941683.44,11447,8.31,73528.8,-3.49,-4.33,-4.41,0,*5C
1510941684.64,11448,8.31,73524.3,-3.49,-4.33,-4.33,0,*56
1510941685.84,11449,8.31,73528.5,-3.49,-4.29,-4.33,0,*5C
1510941687.04,11450,8.31,73530.3,-3.49,-4.29,-4.33,0,*54
1510941688.23,11451,8.31,73524.3,-3.49,-4.29,-4.33,0,*55
1510941689.46,11452,8.31,73526.8,-3.47,-4.25,-4.29,0,*5F
1510941690.66,11453,8.31,73524.0,-3.49,-4.29,-4.33,0,*57
1510941691.88,11454,8.31,73526.0,-3.51,-4.29,-4.29,0,*52
1510941693.11,11455,8.31,73528.0,-3.51,-4.29,-4.29,0,*53
1510941694.31,11456,8.31,73526.8,-3.49,-4.29,-4.41,0,*57
1510941695.5,11457,8.31,73528.0,-3.49,-4.29,-4.33,0,*53
1510941696.7,11458,8.31,73528.3,-3.49,-4.29,-4.33,0,*5C
1510941697.9,11459,8.31,73526.0,-3.49,-4.25,-4.33,0,*51
1510941699.12,11460,8.31,73528.8,-3.47,-4.25,-4.29,0,*5E
1510941700.32,11461,8.31,73524.8,-3.49,-4.29,-4.33,0,*56
1510941701.52,11462,8.31,73526.3,-3.49,-4.29,-4.33,0,*55
1510941702.72,11463,8.31,73526.3,-3.49,-4.29,-4.29,0,*5F
1510941703.94,11464,8.31,73528.0,-3.47,-4.21,-4.25,0,*52
1510941705.14,11465,8.31,73524.0,-3.49,-4.29,-4.33,0,*52
1510941706.34,11466,8.31,73528.3,-3.49,-4.29,-4.41,0,*54
1510941707.54,11467,8.31,73528.0,-3.49,-4.29,-4.33,0,*50
1510941708.73,11468,8.31,73526.0,-3.49,-4.29,-4.33,0,*5F
1510941709.93,11469,8.31,73524.3,-3.49,-4.29,-4.33,0,*5E
1510941711.16,11470,8.31,73524.3,-3.51,-4.29,-4.29,0,*54
1510941712.39,11471,8.31,73526.0,-3.51,-4.25,-4.29,0,*59
1510941713.62,11472,8.31,73528.0,-3.51,-4.25,-4.29,0,*5A
1510941714.85,11473,8.31,73526.5,-3.51,-4.25,-4.29,0,*5B
1510941716.05,11474,8.38,73530.3,-3.49,-4.29,-4.25,0,*55
1510941717.25,11475,8.31,73528.5,-3.49,-4.29,-4.29,0,*58
1510941718.45,11476,8.31,73528.0,-3.49,-4.25,-4.29,0,*57
1510941719.65,11477,8.31,73528.8,-3.49,-4.29,-4.25,0,*56
1510941720.88,11478,8.31,73526.0,-3.47,-4.25,-4.21,0,*5F
1510941722.08,11479,8.31,73526.5,-3.49,-4.25,-4.29,0,*58
1510941723.28,11480,8.31,73526.5,-3.49,-4.25,-4.29,0,*5E
1510941724.51,11481,8.31,73526.5,-3.47,-4.25,-4.25,0,*5D
1510941725.71,11482,8.31,73528.8,-3.49,-4.29,-4.29,0,*50
1510941726.91,11483,8.31,73528.3,-3.49,-4.29,-4.29,0,*51
1510941728.11,11484,8.31,73526.3,-3.49,-4.29,-4.29,0,*56
1510941729.31,11485,8.31,73526.5,-3.49,-4.25,-4.25,0,*57
1510941730.54,11486,8.31,73528.0,-3.47,-4.21,-4.25,0,*5E
1510941731.76,11487,8.31,73526.0,-3.47,-4.25,-4.25,0,*5B
1510941732.96,11488,8.31,73526.3,-3.49,-4.29,-4.29,0,*5A
1510941734.16,11489,8.31,73526.0,-3.49,-4.25,-4.29,0,*57
1510941735.39,11490,8.31,73530.3,-3.47,-4.25,-4.25,0,*5D
1510941736.59,11491,8.31,73528.3,-3.49,-4.29,-4.29,0,*52
1510941737.79,11492,8.31,73528.3,-3.49,-4.29,-4.29,0,*51
1510941739.01,11493,8.31,73526.0,-3.47,-4.21,-4.25,0,*5A
1510941740.21,11494,8.31,73528.8,-3.49,-4.29,-4.29,0,*57
1510941741.41,11495,8.31,73528.3,-3.49,-4.29,-4.29,0,*56
1510941742.64,11496,8.31,73530.8,-3.47,-4.21,-4.25,0,*5F
1510941743.84,11497,8.31,73526.5,-3.49,-4.29,-4.29,0,*54
1510941745.06,11498,8.31,73528.3,-3.47,-4.25,-4.25,0,*55
1510941746.26,11499,8.31,73528.3,-3.49,-4.29,-4.29,0,*5A
1510941747.47,11500,8.31,73526.8,-3.49,-4.29,-4.29,0,*5B
1510941748.67,11501,8.31,73524.3,-3.49,-4.29,-4.29,0,*5A
1510941749.87,11502,8.31,73530.5,-3.49,-4.25,-4.29,0,*55
1510941751.09,11503,8.31,73526.5,-3.47,-4.25,-4.25,0,*56
1510941752.31,11504,8.31,73526.5,-3.47,-4.25,-4.25,0,*51
1510941753.51,11505,8.31,73526.5,-3.49,-4.29,-4.29,0,*5E
1510941754.72,11506,8.31,73526.5,-3.49,-4.29,-4.29,0,*5D
1510941755.92,11507,8.31,73526.0,-3.49,-4.29,-4.25,0,*50
1510941757.14,11508,8.31,73526.0,-3.47,-4.25,-4.25,0,*5D
1510941758.37,11509,8.31,73528.5,-3.47,-4.21,-4.21,0,*5C
1510941759.59,11510,8.38,73532.0,-3.47,-4.21,-4.25,0,*50
1510941760.8,11511,8.31,73528.3,-3.49,-4.29,-4.25,0,*57
1510941762.0,11512,8.31,73526.5,-3.49,-4.25,-4.25,0,*58
1510941763.2,11513,8.31,73524.0,-3.49,-4.29,-4.29,0,*59
1510941764.4,11514,8.31,73528.8,-3.49,-4.29,-4.29,0,*5E
1510941765.63,11515,8.31,73522.8,-3.47,-4.21,-4.29,0,*59
1510941766.82,11516,8.31,73524.3,-3.49,-4.29,-4.33,0,*57
1510941768.05,11517,8.31,73530.3,-3.47,-4.21,-4.29,0,*5B
1510941769.25,11518,8.31,73524.8,-3.49,-4.25,-4.33,0,*55
1510941770.47,11519,8.31,73526.5,-3.47,-4.25,-4.33,0,*5A
1510941771.69,11520,8.31,73526.0,-3.47,-4.25,-4.29,0,*5B
1510941772.89,11521,8.31,73528.8,-3.49,-4.29,-4.33,0,*53
1510941774.09,11522,8.31,73524.3,-3.49,-4.29,-4.33,0,*50
1510941775.28,11523,8.31,73526.5,-3.49,-4.29,-4.33,0,*51
1510941776.51,11524,8.31,73524.3,-3.47,-4.25,-4.29,0,*5F
1510941777.73,11525,8.31,73524.5,-3.47,-4.25,-4.29,0,*5E
1510941778.93,11526,8.31,73524.0,-3.49,-4.29,-4.33,0,*54
1510941780.15,11527,8.31,73528.0,-3.47,-4.25,-4.29,0,*5C
1510941781.35,11528,8.31,73524.8,-3.49,-4.29,-4.33,0,*5A
1510941782.54,11529,8.31,73524.8,-3.49,-4.29,-4.33,0,*5B
1510941783.74,11530,8.31,73526.3,-3.49,-4.29,-4.33,0,*53
1510941784.96,11531,8.31,73528.3,-3.47,-4.29,-4.29,0,*57
1510941786.16,11532,8.31,73526.0,-3.49,-4.33,-4.41,0,*5F
1510941787.36,11533,8.31,73524.3,-3.49,-4.33,-4.41,0,*5E
1510941788.57,11534,8.31,73524.3,-3.49,-4.25,-4.29,0,*50
1510941789.79,11535,8.31,73526.5,-3.47,-4.29,-4.29,0,*53
1510941790.99,11536,8.31,73526.5,-3.49,-4.33,-4.33,0,*5E
1510941792.18,11537,8.31,73528.5,-3.49,-4.33,-4.33,0,*5F
1510941793.39,11538,8.31,73524.8,-3.49,-4.33,-4.41,0,*55
1510941794.61,11539,8.31,73526.0,-3.47,-4.29,-4.37,0,*50
1510941795.83,11540,8.31,73524.8,-3.47,-4.29,-4.29,0,*51
1510941797.04,11541,8.31,73528.8,-3.47,-4.33,-4.33,0,*50
1510941798.25,11542,8.31,73528.8,-3.49,-4.33,-4.41,0,*58
1510941799.44,11543,8.31,73528.0,-3.49,-4.33,-4.33,0,*5C
1510941800.67,11544,8.31,73526.8,-3.47,-4.29,-4.37,0,*5A
1510941801.86,11545,8.31,73524.3,-3.49,-4.33,-4.33,0,*5A
1510941803.06,11546,8.31,73526.5,-3.49,-4.33,-4.33,0,*59
1510941804.26,11547,8.31,73528.3,-3.49,-4.33,-4.33,0,*58
1510941805.48,11548,8.31,73528.5,-3.47,-4.37,-4.37,0,*59
1510941806.68,11549,8.31,73522.5,-3.49,-4.33,-4.33,0,*56
1510941807.89,11550,8.31,73528.0,-3.47,-4.37,-4.41,0,*51
1510941809.09,11551,8.31,73530.0,-3.49,-4.33,-4.41,0,*5A
1510941810.29,11552,8.31,73526.5,-3.49,-4.33,-4.41,0,*59
1510941811.49,11553,8.31,73524.5,-3.49,-4.33,-4.33,0,*5D
1510941812.69,11554,8.31,73524.8,-3.49,-4.41,-4.41,0,*5A
1510941813.91,11555,8.31,73530.3,-3.47,-4.29,-4.29,0,*55
1510941815.11,11556,8.31,73524.3,-3.49,-4.33,-4.41,0,*5D
1510941816.31,11557,8.31,73526.8,-3.49,-4.33,-4.41,0,*5C
1510941817.51,11558,8.31,73524.5,-3.49,-4.33,-4.33,0,*56
1510941818.71,11559,8.31,73524.0,-3.49,-4.33,-4.41,0,*52
1510941819.93,11560,8.31,73524.0,-3.47,-4.29,-4.37,0,*5C
1510941821.13,11561,8.31,73526.0,-3.49,-4.33,-4.33,0,*5C
1510941822.33,11562,8.31,73524.0,-3.49,-4.33,-4.41,0,*5A
1510941823.53,11563,8.31,73526.0,-3.49,-4.33,-4.41,0,*5B
1510941824.73,11564,8.31,73528.3,-3.49,-4.41,-4.41,0,*59
1510941825.93,11565,8.31,73524.0,-3.49,-4.33,-4.33,0,*58
1510941827.13,11566,8.31,73524.3,-3.49,-4.33,-4.33,0,*5B
1510941828.33,11567,8.31,73524.5,-3.49,-4.33,-4.41,0,*5F
1510941829.55,11568,8.31,73524.5,-3.47,-4.29,-4.29,0,*5B
1510941830.74,11569,8.31,73526.3,-3.49,-4.41,-4.33,0,*51
1510941831.96,11570,8.31,73530.3,-3.47,-4.29,-4.29,0,*52
1510941833.16,11571,8.31,73530.0,-3.49,-4.33,-4.41,0,*58
1510941834.37,11572,8.31,73528.5,-3.49,-4.33,-4.41,0,*5B
1510941835.56,11573,8.31,73524.0,-3.49,-4.33,-4.33,0,*5F
1510941836.76,11574,8.31,73524.5,-3.49,-4.33,-4.33,0,*58
1510941837.98,11575,8.31,73526.5,-3.47,-4.29,-4.29,0,*57
1510941839.2,11576,8.31,73526.8,-3.47,-4.37,-4.37,0,*54
1510941840.42,11577,8.31,73528.8,-3.47,-4.29,-4.29,0,*55
1510941841.62,11578,8.31,73528.0,-3.49,-4.33,-4.33,0,*54
1510941842.84,11579,8.31,73528.8,-3.47,-4.25,-4.29,0,*57
1510941844.04,11580,8.31,73528.5,-3.49,-4.29,-4.33,0,*58
1510941845.26,11581,8.31,73528.0,-3.47,-4.29,-4.29,0,*5C
1510941846.46,11582,8.31,73528.8,-3.49,-4.33,-4.33,0,*51
1510941847.66,11583,8.31,73530.3,-3.49,-4.33,-4.33,0,*50
1510941848.86,11584,8.31,73524.3,-3.49,-4.33,-4.33,0,*57
1510941850.08,11585,8.38,73530.3,-3.47,-4.29,-4.37,0,*57
1510941851.28,11586,8.31,73524.3,-3.49,-4.33,-4.41,0,*50
1510941852.48,11587,8.31,73528.8,-3.49,-4.33,-4.33,0,*54
1510941853.7,11588,8.31,73526.3,-3.47,-4.29,-4.37,0,*5A
1510941854.9,11589,8.31,73524.0,-3.49,-4.33,-4.33,0,*5A
1510941856.1,11590,8.31,73524.0,-3.49,-4.33,-4.41,0,*57
1510941857.3,11591,8.31,73528.5,-3.49,-4.33,-4.41,0,*56
1510941858.52,11592,8.31,73524.0,-3.47,-4.29,-4.37,0,*51
1510941859.72,11593,8.31,73530.0,-3.49,-4.33,-4.33,0,*51
1510941860.92,11594,8.31,73526.3,-3.49,-4.33,-4.41,0,*53
1510941862.12,11595,8.31,73526.5,-3.49,-4.33,-4.41,0,*52
1510941863.32,11596,8.31,73528.0,-3.49,-4.33,-4.33,0,*54
1510941864.52,11597,8.31,73524.3,-3.49,-4.33,-4.41,0,*50
1510941865.74,11598,8.31,73528.8,-3.47,-4.29,-4.29,0,*54
1510941866.94,11599,8.31,73524.3,-3.49,-4.33,-4.41,0,*5E
1510941868.14,11600,8.31,73526.0,-3.49,-4.33,-4.41,0,*5D
1510941869.36,11601,8.31,73526.3,-3.47,-4.29,-4.41,0,*59
1510941870.58,11602,8.31,73522.5,-3.47,-4.29,-4.29,0,*54
1510941871.78,11603,8.31,73524.5,-3.49,-4.41,-4.41,0,*5B
1510941872.98,11604,8.31,73526.5,-3.49,-4.33,-4.41,0,*59
1510941874.2,11605,8.31,73524.5,-3.47,-4.29,-4.29,0,*53
1510941875.4,11606,8.31,73524.5,-3.49,-4.33,-4.33,0,*5E
1510941876.6,11607,8.31,73524.8,-3.49,-4.33,-4.33,0,*5F
1510941877.8,11608,8.38,73530.8,-3.49,-4.33,-4.33,0,*50
1510941879.0,11609,8.31,73526.5,-3.49,-4.29,-4.37,0,*5E
1510941880.2,11610,8.31,73526.0,-3.49,-4.33,-4.33,0,*59
1510941881.4,11611,8.31,73526.8,-3.49,-4.33,-4.33,0,*58
1510941882.6,11612,8.31,73526.0,-3.49,-4.33,-4.33,0,*5B
1510941883.8,11613,8.31,73526.3,-3.49,-4.33,-4.33,0,*5A
1510941885.0,11614,8.31,73526.0,-3.49,-4.33,-4.33,0,*5D
1510941886.19,11615,8.31,73528.0,-3.49,-4.33,-4.33,0,*5C
1510941887.39,11616,8.38,73530.8,-3.49,-4.33,-4.33,0,*5F
1510941888.59,11617,8.31,73526.0,-3.49,-4.33,-4.33,0,*5E
1510941889.79,11618,8.31,73530.0,-3.49,-4.33,-4.33,0,*51
1510941890.99,11619,8.31,73526.8,-3.49,-4.33,-4.33,0,*50
1510941892.19,11620,8.31,73522.8,-3.49,-4.33,-4.33,0,*5A
1510941893.39,11621,8.31,73526.3,-3.49,-4.29,-4.37,0,*54
1510941894.59,11622,8.31,73530.5,-3.49,-4.33,-4.33,0,*58
1510941895.79,11623,8.31,73528.3,-3.49,-4.33,-4.41,0,*5C
1510941896.99,11624,8.31,73526.8,-3.49,-4.41,-4.33,0,*5B
1510941898.19,11625,8.31,73524.8,-3.49,-4.41,-4.33,0,*5A
1510941899.38,11626,8.31,73526.8,-3.49,-4.33,-4.33,0,*5C
1510941900.59,11627,8.31,73520.8,-3.49,-4.33,-4.41,0,*58
1510941901.79,11628,8.31,73526.0,-3.49,-4.33,-4.33,0,*52
1510941902.99,11629,8.31,73524.8,-3.49,-4.33,-4.41,0,*56
1510941904.19,11630,8.31,73526.8,-3.49,-4.33,-4.41,0,*5E
1510941905.39,11631,8.31,73528.3,-3.49,-4.33,-4.41,0,*5F
1510941906.59,11632,8.38,73532.0,-3.49,-4.33,-4.33,0,*59
1510941907.79,11633,8.31,73526.5,-3.49,-4.33,-4.33,0,*58
1510941908.99,11634,8.31,73530.0,-3.49,-4.29,-4.37,0,*50
1510941910.19,11635,8.31,73528.0,-3.49,-4.33,-4.41,0,*5B
1510941911.39,11636,8.31,73526.8,-3.49,-4.33,-4.33,0,*5D
1510941912.61,11637,8.31,73528.0,-3.47,-4.29,-4.29,0,*52
1510941913.81,11638,8.31,73526.3,-3.49,-4.33,-4.41,0,*56
1510941915.01,11639,8.31,73526.0,-3.49,-4.33,-4.33,0,*52
1510941916.24,11640,8.31,73524.8,-3.51,-4.33,-4.33,0,*55
1510941917.43,11641,8.31,73526.0,-3.49,-4.33,-4.33,0,*5D
1510941918.64,11642,8.31,73528.8,-3.49,-4.33,-4.41,0,*5B
1510941919.85,11643,8.31,73524.0,-3.47,-4.37,-4.33,0,*55
1510941921.06,11644,8.31,73524.0,-3.47,-4.37,-4.29,0,*59
1510941922.26,11645,8.31,73526.5,-3.49,-4.33,-4.33,0,*59
1510941923.46,11646,8.31,73528.0,-3.49,-4.29,-4.33,0,*51
1510941924.66,11647,8.31,73524.0,-3.49,-4.29,-4.33,0,*50
1510941925.85,11648,8.31,73526.0,-3.49,-4.29,-4.33,0,*5F
1510941927.08,11649,8.31,73524.3,-3.47,-4.25,-4.29,0,*57
1510941928.27,11650,8.31,73524.8,-3.49,-4.29,-4.33,0,*56
1510941929.47,11651,8.31,73524.8,-3.49,-4.33,-4.33,0,*5C
1510941930.67,11652,8.31,73526.5,-3.49,-4.33,-4.33,0,*5F
1510941931.87,11653,8.31,73524.3,-3.49,-4.29,-4.29,0,*5E
1510941933.07,11654,8.31,73526.3,-3.49,-4.33,-4.33,0,*59
1510941934.27,11655,8.31,73524.8,-3.49,-4.33,-4.41,0,*5D
1510941935.47,11656,8.31,73524.3,-3.49,-4.41,-4.33,0,*5E
1510941936.67,11657,8.31,73526.8,-3.49,-4.33,-4.33,0,*5A
1510941937.87,11658,8.38,73530.8,-3.49,-4.33,-4.33,0,*55
1510941939.07,11659,8.38,73528.3,-3.49,-4.33,-4.33,0,*54
1510941940.27,11660,8.31,73526.5,-3.49,-4.33,-4.33,0,*5E
1510941941.47,11661,8.31,73526.0,-3.49,-4.33,-4.33,0,*5F
1510941942.67,11662,8.31,73524.3,-3.49,-4.33,-4.41,0,*59
1510941943.87,11663,8.31,73524.3,-3.49,-4.33,-4.33,0,*5D
1510941945.07,11664,8.31,73526.3,-3.49,-4.33,-4.33,0,*5A
1510941946.26,11665,8.31,73526.5,-3.49,-4.29,-4.33,0,*50
1510941947.48,11666,8.31,73526.0,-3.47,-4.29,-4.29,0,*56
1510941948.68,11667,8.31,73522.0,-3.49,-4.33,-4.33,0,*59
1510941949.88,11668,8.31,73526.3,-3.49,-4.33,-4.41,0,*53
1510941951.08,11669,8.31,73522.0,-3.49,-4.33,-4.33,0,*57
1510941952.28,11670,8.31,73526.8,-3.49,-4.33,-4.33,0,*5F
1510941953.48,11671,8.31,73526.5,-3.49,-4.33,-4.41,0,*5B
1510941954.68,11672,8.31,73524.0,-3.49,-4.33,-4.41,0,*58
1510941955.88,11673,8.31,73528.5,-3.49,-4.33,-4.33,0,*5C
1510941957.08,11674,8.31,73528.3,-3.49,-4.33,-4.33,0,*5B
1510941958.3,11675,8.31,73524.8,-3.47,-4.29,-4.37,0,*5B
1510941959.5,11676,8.31,73528.0,-3.49,-4.33,-4.33,0,*59
1510941960.7,11677,8.31,73524.0,-3.49,-4.33,-4.33,0,*58
1510941961.9,11678,8.31,73524.8,-3.49,-4.33,-4.33,0,*57
1510941963.1,11679,8.31,73526.5,-3.49,-4.33,-4.33,0,*56
1510941964.3,11680,8.31,73528.5,-3.49,-4.33,-4.33,0,*50
1510941965.52,11681,8.31,73524.0,-3.47,-4.29,-4.29,0,*5F
1510941966.72,11682,8.31,73526.3,-3.49,-4.41,-4.33,0,*57
1510941967.92,11683,8.38,73530.3,-3.49,-4.33,-4.33,0,*53
1510941969.12,11684,8.31,73524.8,-3.49,-4.33,-4.33,0,*54
1510941970.33,11685,8.38,73528.5,-3.47,-4.29,-4.41,0,*55
1510941971.53,11686,8.31,73524.0,-3.49,-4.33,-4.33,0,*56
1510941972.73,11687,8.31,73524.3,-3.49,-4.33,-4.33,0,*57
1510941973.93,11688,8.31,73528.0,-3.49,-4.33,-4.33,0,*58
1510941975.13,11689,8.31,73524.8,-3.49,-4.33,-4.41,0,*5C
1510941976.33,11690,8.38,73530.3,-3.49,-4.41,-4.41,0,*51
1510941977.55,11691,8.31,73528.5,-3.47,-4.37,-4.37,0,*5E
1510941978.75,11692,8.31,73528.0,-3.49,-4.33,-4.33,0,*53
1510941979.97,11693,8.31,73526.5,-3.47,-4.29,-4.29,0,*5C
1510941981.16,11694,8.31,73528.0,-3.49,-4.41,-4.33,0,*50
1510941982.36,11695,8.31,73528.3,-3.49,-4.41,-4.33,0,*51
1510941983.58,11696,8.31,73528.3,-3.47,-4.29,-4.37,0,*56
1510941984.8,11697,8.31,73524.8,-3.47,-4.29,-4.29,0,*58
1510941986.0,11698,8.31,73524.0,-3.49,-4.33,-4.33,0,*59
1510941987.19,11699,8.31,73524.5,-3.49,-4.33,-4.33,0,*58
1510941988.4,11700,8.31,73526.0,-3.49,-4.33,-4.41,0,*5C
1510941989.59,11701,8.31,73522.8,-3.49,-4.41,-4.41,0,*58
1510941990.79,11702,8.31,73524.8,-3.49,-4.41,-4.41,0,*5B
1510941991.99,11703,8.31,73530.3,-3.49,-4.33,-4.41,0,*5F
1510941993.19,11704,8.31,73524.8,-3.49,-4.33,-4.33,0,*5D
1510941994.39,11705,8.31,73524.5,-3.49,-4.33,-4.33,0,*5C
1510941995.59,11706,8.31,73520.5,-3.49,-4.41,-4.41,0,*5F
1510941996.78,11707,8.31,73524.5,-3.49,-4.33,-4.33,0,*5E
1510941997.98,11708,8.31,73524.8,-3.49,-4.41,-4.41,0,*51
1510941999.2,11709,8.31,73528.5,-3.47,-4.29,-4.29,0,*5E
1510942000.4,11710,8.31,73524.5,-3.49,-4.33,-4.33,0,*58
1510942001.6,11711,8.38,73530.0,-3.49,-4.33,-4.33,0,*59
1510942002.8,11712,8.31,73526.5,-3.49,-4.33,-4.29,0,*51
1510942004.02,11713,8.31,73526.3,-3.47,-4.29,-4.25,0,*59
1510942005.22,11714,8.31,73524.0,-3.49,-4.33,-4.33,0,*5C
1510942006.42,11715,8.31,73526.0,-3.49,-4.33,-4.41,0,*58
1510942007.65,11716,8.31,73530.0,-3.51,-4.33,-4.33,0,*57
1510942008.85,11717,8.31,73526.5,-3.49,-4.33,-4.33,0,*5F
1510942010.05,11718,8.31,73524.3,-3.49,-4.33,-4.33,0,*50
1510942011.27,11719,8.31,73526.3,-3.51,-4.33,-4.33,0,*58
1510942012.47,11720,8.31,73522.3,-3.49,-4.33,-4.33,0,*5B
1510942013.67,11721,8.31,73526.8,-3.49,-4.33,-4.41,0,*5F
1510942014.87,11722,8.31,73526.0,-3.49,-4.33,-4.33,0,*59
1510942016.07,11723,8.31,73524.8,-3.49,-4.33,-4.33,0,*58
1510942017.3,11724,8.31,73524.8,-3.51,-4.33,-4.33,0,*56
1510942018.52,11725,8.31,73524.5,-3.47,-4.29,-4.29,0,*50
1510942019.74,11726,8.31,73524.5,-3.47,-4.29,-4.29,0,*53
1510942020.94,11727,8.31,73526.5,-3.49,-4.29,-4.33,0,*57
1510942022.14,11728,8.31,73524.3,-3.49,-4.25,-4.33,0,*54
1510942023.33,11729,8.31,73524.0,-3.49,-4.29,-4.33,0,*59
1510942024.53,11730,8.31,73524.8,-3.49,-4.29,-4.29,0,*5A
1510942025.73,11731,8.31,73526.8,-3.49,-4.29,-4.41,0,*55
1510942026.93,11732,8.31,73524.3,-3.49,-4.29,-4.33,0,*53
1510942028.13,11733,8.31,73526.8,-3.49,-4.29,-4.33,0,*52
1510942029.33,11734,8.31,73528.5,-3.49,-4.29,-4.41,0,*50
1510942030.53,11735,8.31,73528.3,-3.49,-4.33,-4.33,0,*5F
1510942031.75,11736,8.31,73526.5,-3.51,-4.33,-4.33,0,*55
1510942032.98,11737,8.31,73528.5,-3.51,-4.33,-4.41,0,*51
1510942034.18,11738,8.31,73528.0,-3.49,-4.29,-4.33,0,*59
1510942035.38,11739,8.31,73530.3,-3.49,-4.33,-4.33,0,*53
1510942036.57,11740,8.31,73526.3,-3.49,-4.33,-4.33,0,*5D
1510942037.77,11741,8.31,73526.3,-3.49,-4.33,-4.33,0,*5C
1510942038.97,11742,8.31,73524.8,-3.49,-4.33,-4.33,0,*5F
1510942040.17,11743,8.31,73528.3,-3.49,-4.29,-4.33,0,*55
1510942041.37,11744,8.38,73528.3,-3.49,-4.29,-4.33,0,*52
1510942042.57,11745,8.31,73528.8,-3.49,-4.29,-4.33,0,*53
1510942043.76,11746,8.31,73524.3,-3.49,-4.29,-4.33,0,*50
1510942044.96,11747,8.31,73526.5,-3.49,-4.29,-4.33,0,*51
1510942046.16,11748,8.31,73524.5,-3.49,-4.29,-4.33,0,*5E
1510942047.36,11749,8.31,73526.0,-3.49,-4.29,-4.33,0,*5F
1510942048.55,11750,8.31,73526.0,-3.49,-4.29,-4.33,0,*57
1510942049.77,11751,8.31,73524.8,-3.47,-4.25,-4.29,0,*5F
1510942051.0,11752,8.31,73524.5,-3.47,-4.25,-4.29,0,*5C
1510942052.2,11753,8.31,73524.3,-3.49,-4.29,-4.33,0,*54
1510942053.39,11754,8.31,73522.0,-3.49,-4.29,-4.33,0,*53
1510942054.59,11755,8.31,73526.0,-3.49,-4.29,-4.33,0,*52
1510942055.81,11756,8.31,73526.0,-3.47,-4.25,-4.29,0,*58
1510942057.01,11757,8.31,73524.5,-3.49,-4.29,-4.33,0,*50
1510942058.21,11758,8.31,73526.0,-3.49,-4.33,-4.41,0,*51
1510942059.41,11759,8.31,73526.8,-3.49,-4.33,-4.33,0,*55
1510942060.61,11760,8.31,73524.3,-3.49,-4.29,-4.29,0,*5F
1510942061.81,11761,8.31,73528.5,-3.49,-4.29,-4.29,0,*5E
1510942063.01,11762,8.31,73522.5,-3.49,-4.29,-4.29,0,*5D
1510942064.21,11763,8.31,73526.3,-3.49,-4.29,-4.29,0,*5C
1510942065.41,11764,8.31,73526.3,-3.49,-4.29,-4.29,0,*5B
1510942066.64,11765,8.31,73526.8,-3.47,-4.25,-4.25,0,*54
1510942067.84,11766,8.31,73526.0,-3.49,-4.25,-4.29,0,*55
1510942069.04,11767,8.31,73526.8,-3.49,-4.29,-4.29,0,*58
1510942070.26,11768,8.31,73524.5,-3.47,-4.25,-4.25,0,*59
1510942071.46,11769,8.31,73528.3,-3.49,-4.29,-4.25,0,*5A
1510942072.67,11770,8.31,73526.5,-3.49,-4.25,-4.29,0,*52
1510942073.87,11771,8.31,73526.3,-3.49,-4.29,-4.29,0,*5F
1510942075.07,11772,8.31,73526.8,-3.49,-4.25,-4.29,0,*50
1510942076.27,11773,8.31,73526.8,-3.49,-4.29,-4.29,0,*5D
1510942077.47,11774,8.38,73530.0,-3.49,-4.29,-4.25,0,*56
1510942078.67,11775,8.31,73526.8,-3.49,-4.29,-4.29,0,*5B
1510942079.87,11776,8.31,73526.5,-3.49,-4.29,-4.29,0,*58
1510942081.09,11777,8.31,73524.5,-3.47,-4.25,-4.25,0,*57
1510942082.29,11778,8.31,73524.3,-3.49,-4.29,-4.29,0,*56
1510942083.5,11779,8.31,73526.3,-3.49,-4.29,-4.29,0,*57
1510942084.7,11780,8.31,73526.8,-3.49,-4.29,-4.29,0,*51
1510942085.9,11781,8.31,73528.3,-3.49,-4.29,-4.29,0,*50
1510942087.1,11782,8.31,73526.0,-3.49,-4.29,-4.29,0,*53
1510942088.32,11783,8.31,73524.5,-3.47,-4.25,-4.25,0,*5C
1510942089.52,11784,8.31,73522.8,-3.49,-4.29,-4.29,0,*55
1510942090.72,11785,8.31,73526.3,-3.49,-4.29,-4.29,0,*54
1510942091.92,11786,8.31,73530.0,-3.49,-4.29,-4.29,0,*57
1510942093.14,11787,8.31,73528.0,-3.47,-4.25,-4.25,0,*58
1510942094.37,11788,8.31,73524.3,-3.47,-4.25,-4.25,0,*57
1510942095.57,11789,8.31,73524.0,-3.49,-4.29,-4.29,0,*58
1510942096.79,11790,8.31,73526.5,-3.47,-4.25,-4.29,0,*52
1510942097.99,11791,8.31,73524.3,-3.49,-4.29,-4.33,0,*5A
1510942099.21,11792,8.31,73524.8,-3.47,-4.25,-4.25,0,*5C
1510942100.44,11793,8.31,73528.8,-3.47,-4.21,-4.25,0,*59
1510942101.64,11794,8.31,73524.3,-3.49,-4.25,-4.25,0,*54
1510942102.84,11795,8.31,73526.8,-3.49,-4.29,-4.29,0,*55
1510942104.06,11796,8.31,73526.3,-3.47,-4.25,-4.25,0,*58
1510942105.27,11797,8.31,73524.0,-3.49,-4.25,-4.29,0,*5B
1510942106.47,11798,8.31,73524.3,-3.49,-4.25,-4.25,0,*58